TimeCDT,TemperatureF,Dew PointF,Humidity,Sea Level PressureIn,VisibilityMPH,Wind Direction,Wind SpeedMPH,Gust SpeedMPH,PrecipitationIn,Events,Conditions,WindDirDegrees,DateUTC
12:53 AM,72.0,66.9,84,29.94,9.0,SSW,4.6,-,N/A,,Partly Cloudy,210,2013-09-08 05:53:00
1:53 AM,71.1,66.9,87,29.93,8.0,ESE,3.5,-,N/A,,Mostly Cloudy,120,2013-09-08 06:53:00
2:53 AM,70.0,66.9,90,29.93,7.0,Calm,Calm,-,N/A,,Mostly Cloudy,0,2013-09-08 07:53:00
3:53 AM,70.0,66.9,90,29.94,8.0,Calm,Calm,-,0.01,,Partly Cloudy,0,2013-09-08 08:53:00
4:53 AM,69.1,66.9,93,29.94,8.0,Calm,Calm,-,N/A,,Clear,0,2013-09-08 09:53:00
5:53 AM,68.0,66.0,93,29.93,7.0,Calm,Calm,-,N/A,,Clear,0,2013-09-08 10:53:00
6:53 AM,69.1,66.9,93,29.94,7.0,East,3.5,-,N/A,,Partly Cloudy,100,2013-09-08 11:53:00
7:53 AM,72.0,68.0,87,29.96,8.0,Calm,Calm,-,N/A,,Clear,0,2013-09-08 12:53:00
8:53 AM,73.0,69.1,87,29.97,8.0,Calm,Calm,-,N/A,,Partly Cloudy,0,2013-09-08 13:53:00
9:53 AM,79.0,68.0,69,29.98,10.0,Calm,Calm,-,N/A,,Partly Cloudy,0,2013-09-08 14:53:00
10:53 AM,81.0,68.0,65,29.99,10.0,East,8.1,-,N/A,,Partly Cloudy,100,2013-09-08 15:53:00
11:53 AM,82.0,69.1,65,29.98,10.0,East,5.8,-,N/A,,Scattered Clouds,100,2013-09-08 16:53:00
12:53 PM,84.0,68.0,58,29.97,10.0,East,6.9,-,N/A,,Clear,100,2013-09-08 17:53:00
1:53 PM,84.9,69.1,59,29.96,10.0,East,6.9,-,N/A,,Scattered Clouds,100,2013-09-08 18:53:00
2:53 PM,86.0,68.0,55,29.95,10.0,SE,4.6,-,N/A,,Clear,130,2013-09-08 19:53:00
3:53 PM,86.0,69.1,57,29.93,10.0,Variable,5.8,-,N/A,,Clear,0,2013-09-08 20:53:00
4:53 PM,86.0,70.0,59,29.92,10.0,East,3.5,-,N/A,,Clear,90,2013-09-08 21:53:00
5:53 PM,84.0,71.1,65,29.92,10.0,ESE,4.6,-,N/A,,Clear,110,2013-09-08 22:53:00
6:53 PM,79.0,72.0,79,29.92,10.0,ESE,3.5,-,N/A,,Clear,120,2013-09-08 23:53:00
7:53 PM,75.9,71.1,85,29.94,9.0,East,3.5,-,N/A,,Clear,90,2013-09-09 00:53:00
8:53 PM,73.0,70.0,90,29.95,8.0,SE,4.6,-,N/A,,Clear,140,2013-09-09 01:53:00
9:53 PM,72.0,70.0,93,29.95,7.0,South,3.5,-,N/A,,Clear,170,2013-09-09 02:53:00
10:53 PM,70.0,68.0,93,29.95,7.0,SSE,3.5,-,N/A,,Clear,160,2013-09-09 03:53:00
11:53 PM,70.0,66.9,90,29.96,9.0,South,3.5,-,N/A,,Clear,180,2013-09-09 04:53:00